Flag for Qatar Weather past 2 weeks in Al-Jamiliyah, Qatar

Now
59 °F

Fog.


Feels Like: 59 °F
Forecast: 55 / 74 °F
Wind: 2 mph from Southeast

Location: Al Udeid

Current Time: Jan 27, 2015 at 2:02:23 AM

Latest Report: Jan 27, 2015 at 12:58 AM


Visibility: 5 mi

Pressure: 30.16 "Hg

Humidity: 79%

Dew point: 53 °F

Location of Al-JamiliyahLocation

Historic Weather in Al-Jamiliyah — Graph

°F

Al-Jamiliyah temperature yesterday

Maximum temperature yesterday: 74 °F (at 1:58 PM)
Minimum temperature yesterday: 53 °F (at 4:58 AM)
Average temperature yesterday: 62 °F

Past Weeks' High & Low Weather Summary

 TemperatureHumidityPressure
High76 °F (Jan 17, 2:58 PM)100% (Jan 17, 2:58 AM)30.33 "Hg (Jan 17, 2:58 AM)
Low45 °F (Jan 21, 3:58 AM)20% (Jan 24, 3:58 PM)29.97 "Hg (Jan 18, 2:58 PM)
Average60 °F65%30.17 "Hg
* Reported Jan 12 12:58 AM — Jan 27 12:58 AM, Al-Jamiliyah, Weather by CustomWeather, © 2014

Note: Actual official high and low records may vary slightly from our data, if they occured in-between our weather recording intervals... More about our weather records

Advertising

Al-Jamiliyah weather history for previous 24 hours

 ConditionsComfort  
Time TempWeatherWind HumidityBarometerVisibility
12:58 AM
Jan 27
59 °FFog.2 mph79%30.16 "Hg5 mi
11:58 PM
Jan 26
59 °FFog.3 mph76%30.17 "Hg5 mi
10:58 PM61 °FFog.3 mph71%30.19 "Hg6 mi
9:58 PM62 °FFog.No wind71%30.19 "Hg6 mi
8:58 PM64 °FSunny.No wind69%30.22 "Hg6 mi
7:58 PM64 °FHaze.2 mph66%30.21 "Hg6 mi
6:58 PM66 °FHaze.6 mph63%30.21 "Hg6 mi
5:58 PM68 °FSunny.8 mph59%30.19 "HgN/A
4:58 PM70 °FSunny.9 mph53%30.18 "HgN/A
3:58 PM72 °FSunny.7 mph48%30.18 "HgN/A
2:58 PM73 °FPassing clouds.6 mph43%30.16 "HgN/A
1:58 PM74 °FClear.1 mph39%30.17 "HgN/A
12:58 PM73 °FPassing clouds.5 mph40%30.19 "HgN/A
11:58 AM71 °FPassing clouds.1 mph46%30.24 "HgN/A
10:58 AM69 °FClear.3 mph50%30.26 "Hg6 mi
9:58 AM67 °FClear.2 mph61%30.27 "Hg5 mi
8:58 AM62 °FFog.2 mph78%30.27 "Hg2 mi
7:58 AM55 °FFog.2 mph92%30.26 "Hg2 mi
6:58 AM54 °FFog.2 mph99%30.24 "Hg1 mi
5:58 AM53 °FFog.5 mph99%30.24 "Hg2 mi
4:58 AM53 °FFog.No wind95%30.23 "Hg2 mi
4:03 AM54 °FFog.6 mph94%30.20 "Hg2 mi
3:58 AM54 °FFog.6 mph97%30.21 "Hg2 mi
2:59 AM55 °FFog.5 mph93%30.22 "Hg2 mi
2:03 AM55 °FFog.6 mph88%30.21 "Hg2 mi
Weather by CustomWeather, © 2014

See weather overviewHow to use our weather pages